This is the latest recevied weather packets stored in our database for station/object K4GDX. If no packets are shown the sender has not sent any weather packets the latest 10 day(s).
| Time | Temp. | Humidity | Pressure | Rain* | Wind** | Luminosity | Snow |
|---|---|---|---|---|---|---|---|
| 1777379134 | 21.67° C | 89% | 1019.6 hPa | 0 mm | - | 267 W/m² | - |
| 1777378830 | 21.67° C | 90% | 1019.7 hPa | 0 mm | - | 241 W/m² | - |
| 1777378540 | 21.67° C | 90% | 1019.7 hPa | 0 mm | - | 229 W/m² | - |
| 1777378233 | 21.11° C | 91% | 1019.6 hPa | 0 mm | - | 44 W/m² | - |
| 1777377929 | 21.11° C | 92% | 1019.5 hPa | 0 mm | - | 46 W/m² | - |
| 1777377629 | 21.11° C | 92% | 1019.5 hPa | 0 mm | - | 202 W/m² | - |
| 1777377321 | 20.56° C | 92% | 1019.4 hPa | 0 mm | - | 232 W/m² | - |
| 1777377021 | 20.56° C | 93% | 1019.3 hPa | 0 mm | - | 127 W/m² | - |
| 1777376719 | 20° C | 93% | 1019.1 hPa | 0 mm | - | 121 W/m² | - |
| 1777376420 | 20° C | 93% | 1019 hPa | 0 mm | - | 102 W/m² | - |
| 1777376114 | 19.44° C | 92% | 1018.8 hPa | 0 mm | - | 88 W/m² | - |
| 1777375815 | 19.44° C | 92% | 1018.8 hPa | 0 mm | - | 67 W/m² | - |
| 1777375514 | 19.44° C | 92% | 1018.7 hPa | 0 mm | - | 46 W/m² | - |
| 1777375211 | 19.44° C | 92% | 1018.8 hPa | 0 mm | - | 32 W/m² | - |
| 1777374902 | 19.44° C | 92% | 1018.8 hPa | 0 mm | - | 33 W/m² | - |
| 1777374602 | 19.44° C | 92% | 1018.8 hPa | 0 mm | - | 18 W/m² | - |
| 1777374299 | 19.44° C | 92% | 1018.6 hPa | 0 mm | - | 12 W/m² | - |
| 1777373996 | 19.44° C | 92% | 1018.5 hPa | 0 mm | - | 9 W/m² | - |
| 1777373696 | 19.44° C | 92% | 1018.5 hPa | 0 mm | - | 5 W/m² | - |
| 1777373394 | 19.44° C | 92% | 1018.5 hPa | 0 mm | - | 0 W/m² | - |
| 1777373094 | 19.44° C | 92% | 1018.6 hPa | 0 mm | - | 0 W/m² | - |
| 1777372794 | 19.44° C | 92% | 1018.5 hPa | 0 mm | - | 0 W/m² | - |
| 1777372494 | 19.44° C | 92% | 1018.3 hPa | 0 mm | - | 0 W/m² | - |
| 1777372193 | 19.44° C | 91% | 1018.3 hPa | 0 mm | - | 0 W/m² | - |
| 1777371893 | 19.44° C | 91% | 1018.2 hPa | 0.25 mm | - | 0 W/m² | - |
* Rain latest hour (hover to see other rain measurements)
** Current wind speed in m/s (hover to see current wind gust speed)